www.pogodaiklimat.ru

Погода и климат >> Архив погоды >> Россия >> Крым >> Симферополь


АРХИВ ПОГОДЫ в Симферополе

Время (UTC), дата Ветер
(напр.,м/с)
 
Видим.   Явления Облачность Т
(С)
Тd
(С)
f
(%)
Тe
(С)
Тes
(С)
Комфортность P
(гПа)
Po
(гПа)
Тmin
(С)
Tmax
(С)
R
(мм)
R24
(мм)
S
(см)
06 19.05 Ю 4 10 км гроза, ливневой дождь 10/6 1000 м
[Cb cap Ac und]
+17.6 +13.5 77 +17 +18 по сезону 1007.5 986.4 +14.9 0.3
09 19.05 В 4
{11}
10 км слаб. ливневой дождь {гроза} 10/6 1050 м
[Cb calv Ac und]
+18.3 +17.1 93 +19 +20 по сезону 1009.1 988.1
12 19.05 ЮВ 5
{10}
10 км в посл. час ливневой дождь {гроза} 10/5 1020 м
[Cb calv Ac und]
+18.7 +15.6 82 +19 +20 по сезону 1007.9 986.9
15 19.05 Ю 2 10 км 4/1 1000 м
[Cb calv Ci fib]
+20.4 +17.2 82 +24 +27 комфорт 1010.4 989.5 5
18 19.05 Ю 3 10 км 3/0
[Ac trans]
+16.1 +15.3 95 +16 +16 тепло 1011.0 989.8 +20.6 4
21 19.05 З 3 100 м туман ?/? +15.0 +14.8 99 +14 +14 тепло 1012.1 990.8
00 20.05 ЮВ 1 200 м туман ?/? +15.0 +15.0 100 +15 +15 тепло 1012.6 991.3
03 20.05 СВ 1 100 м туман ?/? +14.5 +14.5 100 +15 +15 по сезону 1013.5 992.1 +14.4 0.3
06 20.05 В 3 10 км {туман} 10/10 180 м
[St]
+15.7 +15.4 98 +15 +15 прохладно 1014.7 993.4 +14.2 0.6
09 20.05 СВ 4 10 км 3/0
[Ci fib]
+23.7 +17.2 67 +28 +39 душно 1013.6 992.9
12 20.05 З 5 10 км 1/1 1500 м
[Cu hum]
+23.5 +17.7 70 +28 +34 душно 1013.5 992.8
15 20.05 З 5 10 км 3/0
[Ci fib]
+22.1 +15.7 67 +26 +28 душно 1012.9 992.1 0.3
18 20.05 З 2 10 км 4/0
[Ci fib]
+17.5 +14.8 84 +18 +18 тепло 1013.8 992.6 +25.6
21 20.05 штиль 0 10 км 6/0
[Ci fib]
+16.9 +14.4 85 +17 +17 тепло 1013.9 992.7
00 21.05 штиль 0 2200 м дымка 6/0
[Ci fib]
+14.7 +14.5 99 +14 +14 тепло 1013.5 992.1
03 21.05 ЮВ 2 10 км 8/0
[Ac trans]
+16.2 +12.6 79 +16 +16 тепло 1014.0 992.7 +13.1
06 21.05 штиль 0 10 км 10/0
[Ac und]
+20.4 +12.6 61 +22 +26 комфорт 1014.4 993.4 +13.1
09 21.05 З 2 10 км 10/0
[Ac trans Cc]
+25.5 +14.0 49 +28 +40 жарко 1014.2 993.6
12 21.05 З 5 10 км 10/1 1500 м
[Cu hum Ci fib]
+26.0 +15.1 51 +29 +34 душно 1013.6 993.0
15 21.05 СЗ 3 10 км 8/1 1500 м
[Sc Ac trans]
+25.0 +12.3 45 +27 +28 жарко 1012.6 991.9
18 21.05 С 1 10 км в посл. час ливневой дождь 6/1 1000 м
[Cb calv Ac trans]
+18.4 +15.6 84 +20 +20 тепло 1012.9 991.8 +27.0 0.0
21 21.05 СВ 5 10 км 10/0
[Ac trans Ci fib]
+16.0 +14.4 90 +15 +15 тепло 1012.2 990.9
00 22.05 Ю 3 10 км гроза без осадков {ливн. осадки} 10/4 840 м
[Cb calv Ac und]
+15.4 +14.8 96 +15 +15 тепло 1013.3 992.0
03 22.05 Ю 3 10 км {гроза, ливн. осадки} 9/1 1000 м
[Cb calv Ac trans]
+15.9 +13.2 84 +15 +16 по сезону 1010.8 989.6 +14.2 0.4
06 22.05 ЮЗ 8-10
{10}
10 км {гроза, ливн. осадки} 5/0
[Ac trans]
+18.1 +13.4 74 +17 +18 по сезону 1012.2 991.1 +14.2 0.4
09 22.05 ЮЗ 7-12
{12}
10 км 6/6 800 м
[Cu hum]
+19.9 +13.8 68 +21 +23 комфорт 1012.4 991.4
12 22.05 ЮЗ 7
{12}
10 км 3/3 600 м
[Cb calv]
+21.3 +11.1 52 +23 +26 комфорт 1012.6 991.7
15 22.05 ЮЗ 6
{11}
10 км 8/1 1500 м
[Sc diur, vesp Ac trans]
+20.2 +9.7 51 +21 +22 комфорт 1012.2 991.2
18 22.05 Ю 4 10 км 1/0
[Ac trans]
+14.9 +10.5 75 +14 +14 по сезону 1013.0 991.6 +21.7
21 22.05 Ю 5 10 км ясно +13.2 +9.3 77 +11 +11 по сезону 1013.1 991.6
00 23.05 Ю 4 10 км 3/0
[Ci fib]
+13.0 +8.3 73 +11 +11 по сезону 1012.1 990.6
03 23.05 Ю 4 10 км 8/0
[Ac trans]
+14.3 +8.3 67 +13 +13 по сезону 1012.1 990.7 +12.2
06 23.05 Ю 4 10 км в посл. час ливневой дождь 9/4 1000 м
[Cb calv Ac lent]
+16.7 +12.5 76 +16 +17 по сезону 1011.3 990.1 +12.2 0.3
09 23.05 З 7 10 км 4/4 1200 м
[Cu med, cong]
+23.4 +8.7 39 +25 +28 комфорт 1010.5 989.8
12 23.05 З 8-12
{12}
10 км 3/3 1000 м
[Cb calv]
+23.9 +8.7 38 +25 +26 комфорт 1010.3 989.6
15 23.05 ЮЗ 6
{12}
10 км 1/1 1500 м
[Sc]
+22.3 +10.5 47 +24 +25 комфорт 1009.7 988.9 0.3
18 23.05 ЮЗ 4 10 км ясно +15.5 +12.3 81 +15 +15 по сезону 1010.6 989.3 +24.6
21 23.05 Ю 4 10 км ясно +13.0 +9.6 80 +11 +11 по сезону 1011.2 989.7
00 24.05 Ю 3 10 км ясно +12.9 +9.0 77 +12 +12 по сезону 1010.9 989.4
03 24.05 ЮВ 3 10 км ясно +13.9 +8.9 72 +13 +13 по сезону 1010.0 988.6 +11.9
06 24.05 В 2 10 км 4/0
[Ci fib]
+21.7 +9.6 46 +23 +31 комфорт 1008.9 988.1 +11.9
09 24.05 ЮВ 2 10 км 10/1 1500 м
[Cu hum Ci fib]
+25.5 +9.8 37 +26 +39 жарко 1008.0 987.5
12 24.05 З 7 10 км 10/4 1200 м
[Cb calv Ci fib]
+22.9 +13.1 54 +26 +28 жарко 1007.8 987.1
15 24.05 З 5 10 км 10/4 1200 м
[Cb calv Ac und]
+19.6 +12.4 63 +21 +21 комфорт 1008.1 987.2
18 24.05 З 3 10 км {ливн. осадки} 10/4 1000 м
[Cb calv Ac lent]
+16.4 +15.6 95 +16 +16 по сезону 1009.0 987.8 +25.9 2
21 24.05 Ю 2 5000 м дымка {гроза} 6/3 1000 м
[Cb calv Ac trans]
+15.1 +14.6 97 +15 +15 тепло 1008.8 987.5
00 25.05 ЮВ 1 10 км {гроза} 8/1 1000 м
[Cb calv Ac trans]
+15.2 +12.9 86 +16 +16 тепло 1007.7 986.5
03 25.05 ЮВ 2 10 км 10/4 1200 м
[Cb calv Ac trans Ci fib]
+14.9 +12.9 88 +15 +15 по сезону 1007.4 986.1 +13.3 2
06 25.05 штиль 0 10 км 10/1 1000 м
[Sc Ac cast Ci fib]
+18.7 +13.6 72 +19 +25 тепло 1007.7 986.7 +13.3
09 25.05 З 4 10 км 10/6 1170 м
[Cb calv Ci fib]
+20.5 +13.7 65 +23 +27 комфорт 1007.3 986.5
12 25.05 З 6
{10}
10 км гроза без осадков {ливн. осадки} 10/6 800 м
[Cb cap Ac und]
+18.9 +13.7 72 +19 +20 прохладно 1008.5 987.5
15 25.05 ЮЗ 7-10
{10}
10 км {гроза} 4/4 1300 м
[Cb calv]
+19.2 +13.6 70 +20 +21 тепло 1008.8 987.8 0.3
18 25.05 ЮЗ 4
{10}
10 км {гроза} 10/8 800 м
[Sc Ac und]
+15.9 +14.3 90 +15 +15 по сезону 1010.3 989.1 +21.6 0.3
21 25.05 ЮЗ 5 10 км 10/6 800 м
[Sc Ci fib]
+15.8 +15.0 95 +15 +15 тепло 1010.6 989.4
00 26.05 ЮЗ 4 10 км 6/6 840 м
[Sc]
+15.8 +14.8 94 +15 +15 тепло 1010.4 989.2
03 26.05 ЮЗ 5 10 км 10/5
[St Ac und]
+15.9 +15.7 99 +15 +15 по сезону 1010.9 989.7 +15.4

 

Местоположение метеостанции Симферополь (Крым, Россия): широта 45.03 долгота 33.97 высота над уровнем моря 181 м.

В архиве по умолчанию представлена погода в Симферополе за последнюю неделю. Архивные данные за месяц целиком и за предыдущие месяцы, начиная с января 2011 года, Вы можете получить, выбрав интересующий диапазон дат из раскрывающегося списка и нажав кнопку "Ввод!".


*Определитесь, кто Вы:
робот инопланетянин человек

Внимание! Время в таблицах - всемирное. Для получения местного времени необходимо прибавить поправку, которая равна 3 ч.

Смотрите также архив погоды в соседних городах и на ближайших метеорологических станциях:

Погода в Симферополе город (Крым, Россия) (15 км)
Погода в Почтовом (Крым, Россия) (22 км)
Погода на Ангарском Перевале (Крым, Россия) (43 км)
Погода в Белогорске (Крым, Россия) (50 км)
Погода в Евпатории (Крым, Россия) (50 км)
Погода в Алуште (Крым, Россия) (52 км)
Погода в Севастополе (город Севастополь, Россия) (57 км)
Погода в Клепинино (Крым, Россия) (58 км)
Погода в Никитском саду (Крым, Россия) (61 км)
Погода на Ай-Петри (Крым, Россия) (63 км)

Пояснения к столбцам:

Ветер - указаны скорость ветра в м/с - средняя за 10 мин, порывы в срок и между сроками (в фигурных скобках) и направление, откуда дует ветер: С - северный, СВ - северо-восточный, В - восточный, ЮВ - юго-восточный, Ю - южный, ЮЗ - юго-западный, З - западный, СЗ - северо-западный.
Видимость - горизонтальная дальность видимости в метрах или километрах. При видимости от 1 до 10 км при отсутствии осадков обычно наблюдается дымка, при ухудшении видимости до 1 км и менее - туман. В сухую погоду видимость может ухудшаться дымом, пылью или мглою.
Явления - указаны атмосферные явления, наблюдавшиеся в срок или в последний час перед сроком; фигурными скобками обозначены явления, наблюдавшиеся между сроками (за 1-3 часа до срока); квадратными скобками обозначены град или гололедные отложения с указанием их диаметра в мм.
Облачность - указаны через наклонную черту общая и нижняя облачность в баллах и высота нижней границы облаков в метрах; квадратными скобками обозначены формы облаков: Ci - перистые, Cs - перисто-слоистые, Cc - перисто-кучевые, Ac - высококучевые, As - высокослоистые, Sc - слоисто-кучевые, Ns - слоисто-дождевые, Cu - кучевые, Cb - кучево-дождевые. Подробнее классификацию облаков см. в Атласе облаков (PDF).
T - Температура воздуха - температура, измеренная на высоте 2 м над землей.
Td - Температура точки росы - температура, при понижении до которой содержащийся в воздухе водяной пар достигнет насыщения.
f - Относительная влажность воздуха - влажноcть воздуха, измеренная на высоте 2 м над землей.
Te - Эффективная температура - температура, которую ощущает одетый по сезону человек в тени. Характеристика душности погоды. При расчете учитывается влияние влажности воздуха и скорости ветра на теплоощущения человека.
Tes - Эффективная температура на солнце - температура, которую ощущает человек, с поправкой на солнечный нагрев. Характеристика знойности погоды. Зависит от высоты солнца над горизонтом, облачности и скорости ветра. Ночью, в пасмурную погоду, а также при ветре 12 м/с и более поправка равна нулю.
P - Атмосферное давление - приведенное к уровню моря атмосферное давление.
Po - Атмосферное давление - измеренное на уровне метеостанции атмосферное давление.
Tmin - Минимальная температура - минимум температуры воздуха на высоте 2 м над землей.
Tmax - Максимальная температура - максимум температуры воздуха на высоте 2 м над землей.
R - Количество осадков - Количество выпавших осадков за период времени, мм. При наведении курсора мыши на число - период времени, за который выпало указанное количество осадков.
R24 - Количество осадков - Количество выпавших осадков за 24 часа, мм.
S - Снежный покров - Высота снежного покрова, см. При наведении курсора мыши на число - состояние снежного покрова и степень покрытия местности в баллах.